User: anonymous   Login
Location: Norwich
(52.6280°N, 1.3030°E)
Time: 08:12:40
(UTC+00:00)
Language:

Meteor 1-22 Rocket - Orbit

View from above orbital plane
View from above orbital plane
View from above satellite
View from above satellite

Ground track
Ground track

The orbit data is extracted from the following two-line orbital elements,

1  8294U 75087B   16037.90845805 +.00000267 +00000-0 +14103-3 0  9993
2  8294 081.2123 146.1927 0107012 002.7563 357.4173 14.08537556074731
Epoch (UTC): 06 February 2016 21:48:10
Eccentricity: 0.0107012
inclination: 81.2123°
perigee height: 787 km
apogee height: 942 km
right ascension of ascending node: 146.1927°
argument of perigee: 2.7563°
revolutions per day: 14.08537556
mean anomaly at epoch: 357.4173°
orbit number at epoch: 7473

The dashed part of the orbit path shows where the satellite is in the earth's shadow,  

DLR